Location: Home
(42.5358°N, 72.7383°W)
Time: 18:14:05
(UTC-05:00)

A-11 Canister half - Pass Details

Date: 07 December 2021
Orbit: 1516 x 1684 km, 47.2° (Epoch: 18 January)

Event Time Altitude Azimuth Distance (km) Brightness Sun altitude
Rises 07:00:22 0° 250° (WSW) 4,745 11.2 -1.9°
Reaches altitude 10° 07:03:24 10° 252° (WSW) 3,783 10.7 -1.5°
Maximum altitude 07:13:07 82° 340° (NNW) 1,645 9.2 0.1°
Drops below altitude 10° 07:23:12 10° 69° (ENE) 3,918 11.7 1.6°
Sets 07:26:24 0° 70° (ENE) 4,921 12.2 2.1°
